Elyria, OH

8:34 AM EDT on August 30, 2016 (GMT -0400)
Lorain County Regional

Weather History for KLPR - June, 2013

Change the Weather History Date:

Tuesday, June 25, 2013

  Actual Average (KCLE) Record (KCLE)
Temperature  
Mean Temperature 80 °F 72 °F  
Max Temperature 91 °F 81 °F 104 °F (1988)
Min Temperature 68 °F 62 °F 41 °F (1979)
Degree Days  
Heating Degree Days 0 1  
Month to date heating degree days 41  
Since 1 June heating degree days 41  
Since 1 July heating degree days 5761  
Cooling Degree Days 14 7  
Month to date cooling degree days 128  
Year to date cooling degree days 187  
Since 1 June cooling degree days 128  
Growing Degree Days 30 (Base 50)    
Moisture  
Dew Point 67 °F    
Average Humidity 74    
Maximum Humidity 94    
Minimum Humidity 46    
Precipitation  
Precipitation 2.92 in 0.12 in 2.41 in (2013)
Month to date precipitation 2.88  
Year to date precipitation 18.02  
Snow  
Snow 0.00 in 0.00 in - ()
Month to date snowfall 0.0  
Since 1 June snowfall 0.0  
Since 1 July snowfall 68.1  
Snow Depth -    
Sea Level Pressure  
Sea Level Pressure 29.92 in    
Wind  
Wind Speed 11 mph (West)    
Max Wind Speed 38 mph    
Max Gust Speed 48 mph    
Visibility 6 miles    
Events Rain , Thunderstorm    
T = Trace of Precipitation, MM = Missing Value Source: NWS Daily Summary

Daily Weather History Graph

Daily Weather History Graph

Search for Another Location

Airport or City:

Trip Planner

Search our weather history database for the weather conditions in past years. The results will help you decide how hot, cold, wet, or windy it might be!

Date:

Astronomy

Jun. 25, 2013 Rise Set
Actual Time 5:56 AM EDT 9:06 PM EDT
Civil Twilight 5:22 AM EDT 9:39 PM EDT
Nautical Twilight 4:39 AM EDT 10:23 PM EDT
Astronomical Twilight 3:47 AM EDT 11:15 PM EDT
Moon 10:48 PM EDT (6/25) 8:36 AM EDT (6/25)
Length of Visible Light 16h 17m
Length of Day
15h 09m
Waning Gibbous, 93% of the Moon is Illuminated
Jun 25
Waning Gibbous
Jun 30
Last Quarter
Jul 8
New
Jul 15
First Quarter
Jul 22
Full

Hourly Weather History & Observations

Time (EDT) Temp. Heat Index Dew Point Humidity Pressure Visibility Wind Dir Wind Speed Gust Speed Precip Events Conditions
12:53 AM 75.9 °F - 66.0 °F 71% 29.99 in 10.0 mi SSW 6.9 mph - N/A   Clear
1:53 AM 75.9 °F - 66.0 °F 71% 29.94 in 10.0 mi South 10.4 mph - N/A   Clear
2:53 AM 75.9 °F - 64.9 °F 69% 29.96 in 10.0 mi WSW 8.1 mph - N/A   Clear
3:53 AM 73.9 °F - 64.9 °F 73% 29.95 in 10.0 mi SW 8.1 mph - N/A   Clear
4:53 AM 72.0 °F - 64.9 °F 78% 29.96 in 10.0 mi SW 5.8 mph - N/A   Clear
5:53 AM 71.1 °F - 64.9 °F 81% 29.97 in 10.0 mi SW 8.1 mph - N/A   Clear
6:53 AM 73.9 °F - 64.9 °F 73% 29.99 in 9.0 mi West 9.2 mph - N/A   Scattered Clouds
7:53 AM 75.9 °F - 66.9 °F 74% 29.99 in 8.0 mi West 13.8 mph 19.6 mph N/A   Scattered Clouds
8:53 AM 77.0 °F - 66.9 °F 71% 30.01 in 8.0 mi West 12.7 mph - N/A   Clear
9:53 AM 80.1 °F 82.7 °F 68.0 °F 67% 30.00 in 9.0 mi WNW 11.5 mph - N/A   Mostly Cloudy
10:53 AM 82.9 °F 86.5 °F 69.1 °F 63% 29.99 in 9.0 mi West 13.8 mph 20.7 mph N/A   Partly Cloudy
11:53 AM 84.9 °F 87.6 °F 66.9 °F 55% 29.96 in 10.0 mi West 9.2 mph - N/A   Clear
12:53 PM 86.0 °F 89.4 °F 68.0 °F 55% 29.94 in 9.0 mi WSW 16.1 mph 23.0 mph N/A   Clear
1:53 PM 88.0 °F 92.1 °F 69.1 °F 53% 29.93 in 9.0 mi WSW 16.1 mph 25.3 mph 0.01 in   Scattered Clouds
2:39 PM 87.8 °F 92.6 °F 69.8 °F 55% 29.94 in 2.0 mi West 12.7 mph - N/A Thunderstorm Haze
2:48 PM 87.8 °F 92.6 °F 69.8 °F 55% 29.94 in 9.0 mi West 10.4 mph 19.6 mph N/A Thunderstorm Mostly Cloudy
2:53 PM 87.1 °F 92.0 °F 70.0 °F 57% 29.91 in 9.0 mi West 9.2 mph - N/A   Mostly Cloudy
3:27 PM 91.4 °F 95.4 °F 68.0 °F 46% 29.92 in 10.0 mi West 15.0 mph 25.3 mph 0.00 in Thunderstorm Clear
3:49 PM 77.0 °F - 62.6 °F 61% 29.96 in 9.0 mi NW 24.2 mph 40.3 mph 0.00 in Thunderstorm Thunderstorm
3:53 PM 72.0 °F - 62.1 °F 71% 29.94 in 2.5 mi NW 34.5 mph 47.2 mph 0.02 in Rain , Thunderstorm Light Thunderstorms and Rain
3:55 PM 71.6 °F - 62.6 °F 73% 29.96 in 0.8 mi NW 38.0 mph 48.3 mph 0.10 in Rain , Thunderstorm Heavy Thunderstorms and Rain
4:11 PM 73.4 °F - 64.4 °F 73% 29.94 in 2.5 mi NW 11.5 mph 19.6 mph 0.34 in Rain , Thunderstorm Heavy Thunderstorms and Rain
4:19 PM 71.6 °F - 66.2 °F 83% 29.93 in 4.0 mi West 6.9 mph 16.1 mph 0.35 in Rain , Thunderstorm Thunderstorms and Rain
4:45 PM 73.4 °F - 66.2 °F 78% 29.90 in 10.0 mi SW 4.6 mph - 0.35 in   Mostly Cloudy
4:53 PM 77.0 °F - 66.9 °F 71% 29.87 in 10.0 mi WSW 3.5 mph - 0.35 in   Scattered Clouds
5:53 PM 84.0 °F 90.2 °F 73.0 °F 69% 29.84 in 10.0 mi WSW 5.8 mph - N/A   Clear
6:53 PM 84.0 °F 90.2 °F 73.0 °F 69% 29.85 in 9.0 mi WNW 3.5 mph - N/A   Clear
7:06 PM 84.2 °F 90.9 °F 73.4 °F 70% 29.86 in 9.0 mi Calm Calm - N/A Thunderstorm Clear
7:53 PM 84.9 °F 89.4 °F 70.0 °F 61% 29.85 in 10.0 mi SW 4.6 mph - N/A Thunderstorm Mostly Cloudy
8:33 PM 77.0 °F - 69.8 °F 78% 29.87 in 10.0 mi NNE 12.7 mph 21.9 mph N/A Thunderstorm Thunderstorm
8:42 PM 71.6 °F - 69.8 °F 94% 29.89 in 1.8 mi North 8.1 mph 39.1 mph 0.19 in Rain , Thunderstorm Heavy Thunderstorms and Rain
8:53 PM 71.1 °F - 68.0 °F 90% 29.86 in 1.2 mi NNW 28.8 mph 41.4 mph 0.47 in Rain , Thunderstorm Heavy Thunderstorms and Rain
8:57 PM 73.4 °F - 69.8 °F 88% 29.88 in 0.8 mi NW 18.4 mph 41.4 mph 0.14 in Rain , Thunderstorm Heavy Thunderstorms and Rain
9:05 PM 73.4 °F - 66.2 °F 78% 29.87 in 1.2 mi NW 19.6 mph 32.2 mph 0.30 in Rain , Thunderstorm Heavy Thunderstorms and Rain
9:18 PM 71.6 °F - 66.2 °F 83% 29.92 in 1.0 mi WSW 21.9 mph 39.1 mph 0.77 in Rain , Thunderstorm Heavy Thunderstorms and Rain
9:25 PM 73.4 °F - 64.4 °F 73% 29.88 in 0.8 mi West 12.7 mph 41.4 mph 1.01 in Rain , Thunderstorm Heavy Thunderstorms and Rain
9:30 PM 71.6 °F - 64.4 °F 78% 29.89 in 1.5 mi West 23.0 mph 34.5 mph 1.11 in Rain , Thunderstorm Heavy Thunderstorms and Rain
9:44 PM 73.4 °F - 68.0 °F 83% 29.89 in 1.5 mi NNE 5.8 mph 38.0 mph 1.38 in Rain , Thunderstorm Thunderstorms and Rain
9:48 PM 71.6 °F - 66.2 °F 83% 29.90 in 4.0 mi Variable 3.5 mph - 1.38 in Rain , Thunderstorm Light Thunderstorms and Rain
9:53 PM 73.0 °F - 66.9 °F 81% 29.87 in 9.0 mi SSE 9.2 mph - 1.38 in Rain , Thunderstorm Light Thunderstorms and Rain
10:11 PM 71.6 °F - 68.0 °F 88% 29.92 in 2.5 mi ENE 4.6 mph 20.7 mph 0.15 in Rain , Thunderstorm Thunderstorms and Rain
10:18 PM 71.6 °F - 68.0 °F 88% 29.91 in 6.0 mi Variable 6.9 mph - 0.15 in Rain , Thunderstorm Light Thunderstorms and Rain
10:51 PM 71.6 °F - 66.2 °F 83% 29.95 in 2.5 mi NNW 15.0 mph 25.3 mph 0.25 in Rain Heavy Rain
10:53 PM 71.1 °F - 66.0 °F 84% 29.94 in 2.0 mi NNW 19.6 mph 27.6 mph 0.29 in Rain Heavy Rain
11:00 PM 69.8 °F - 66.2 °F 88% 29.95 in 1.5 mi Variable 5.8 mph 27.6 mph 0.13 in Rain Heavy Rain
11:12 PM 69.8 °F - 64.4 °F 83% 29.92 in 3.0 mi Variable 4.6 mph - 0.22 in Rain Heavy Rain
11:16 PM 68.0 °F - 64.4 °F 88% 29.93 in 1.5 mi NNW 3.5 mph - 0.33 in Rain Heavy Rain
11:33 PM 68.0 °F - 66.2 °F 94% 29.90 in 10.0 mi Calm Calm - 0.40 in   Overcast
11:53 PM 69.1 °F - 66.0 °F 90% 29.90 in 10.0 mi South 6.9 mph - 0.40 in Thunderstorm Mostly Cloudy